Kuiper-00032

operational
NORAD ID: 63745 Int'l Des: 2025-088 Owner: KUIP Country: US Constellation: kuiper
LEOCIRCULAR

Kuiper-00032について

説明を読み込み中...

リアルタイム位置

3D地球を読み込み中...

次回通過

高度履歴

Altitude vs Time

uPlot chart will show altitude changes over time

軌道要素

1 63745U 25088X 25340.77201106 .00026932 00000-0 83103-3 0 9996
2 63745 51.8716 112.0347 0004529 158.0567 202.0612 15.33369744 35270
Epoch: Dec 6, 2025 • Age: 22 hours

現在のステータス

高度 477.4 km
速度 7.63 km/s
衛星直下点 -29.73°S, 120.66°E
打ち上げ日 Apr 28, 2025
運用期間 0.6 years
タイプ internet

技術仕様

分類 Payload
質量 490.00 kg
乾燥質量 490.00 kg
総質量 490.00 kg
長さ 1.80 m
直径 0.70 m
スパン 5.00 m
形状 Box + 2 pan
製造者 KUIP
バスタイプ Kuiper
フェーズステータス In Orbit
所有者/国 KUIP/US

大規模コンステレーション

Loading constellations...